SCP
0 0 0 0 0 0 0 0 0 0 0 0 0 0 0 0 0 0 0 0 -0 -0 -0 -0 -0 -0 -0 -0 -0 -1 -1 -1 -1 -0 -0 -0 -0 -0 -0 -0 -0 0 -0 0 0 -0 0 0 0
0 0 0 0 0 0 0 0 0 0 0 0 0 0 0 0 0 0 0 -0 -0 -0 -0 -0 -0 -0 -0 -0 -0 -1 -1 -1 -1 -0 -0 -0 -0 -0 -0 -0 -0 -0 -0 -0 0 0 0 0 0
0 0 0 0 0 0 0 0 0 0 0 0 0 0 0 0 0 0 0 -0 -0 -0 -0 -0 -0 -0 -0 -0 -0 -1 -1 -1 -1 -0 -0 -0 -0 -0 -0 -0 -0 0 0 0 0 0 0 0 0
0 0 0 0 0 0 0 0 0 0 0 0 0 0 0 0 0 0 -0 -0 -0 -0 -0 -0 -0 -0 -0 -0 -0 -0 -0 -0 -0 -0 -0 -0 -0 -0 0 0 0 0 0 0 0 0 0 -0 -0
0 0 0 0 0 0 0 0 0 0 0 0 0 0 1 0 0 0 0 -0 -0 -0 -0 -0 -0 -0 -0 -0 -0 -0 -0 -0 -0 -0 -0 -0 0 0 0 0 0 0 0 -0 0 0 -0 -0 -0
0 0 0 0 0 0 0 0 0 0 0 0 0 0 1 1 0 0 0 0 0 -0 -0 -0 -0 -0 -0 -0 -0 -0 -0 -0 -0 0 0 0 0 0 0 0 0 0 0 0 -0 -0 -0 -0 -0
0 0 0 0 0 0 0 0 0 0 0 0 0 0 1 0 1 0 0 0 0 0 0 -0 -0 -0 0 -0 -0 -0 -0 0 0 0 0 0 0 0 0 0 0 0 0 0 0 0 -0 -0 -0
0 0 0 0 0 0 0 0 0 0 0 0 0 0 0 1 1 0 0 0 0 0 0 0 0 0 -0 -0 0 0 0 0 0 0 0 0 0 0 0 0 0 0 0 0 0 0 0 0 0
0 0 0 0 0 0 0 0 0 0 0 0 0 0 1 1 1 1 1 0 0 0 0 0 0 0 0 0 0 0 0 0 0 0 0 0 0 0 0 0 0 0 0 0 0 0 0 0 0
0 0 0 0 0 0 0 0 0 0 0 0 0 0 1 0 1 1 0 0 0 0 0 -0 -0 0 0 0 0 0 0 0 0 0 0 0 0 0 0 0 0 0 0 0 0 0 0 0 0
0 0 0 0 0 0 0 0 0 0 0 0 0 0 1 1 1 0 0 0 0 0 0 -0 -0 -0 -0 -0 0 0 0 0 0 0 0 0 0 0 0 0 0 0 0 0 0 0 0 0 0
0 0 0 0 0 0 0 0 0 0 0 0 0 0 1 1 1 0 0 0 0 0 0 0 0 0 -0 0 0 0 0 0 0 0 1 1 0 0 0 0 0 0 0 0 0 0 0 0 0
0 0 0 0 0 0 0 0 0 0 0 0 0 0 0 1 1 1 1 1 0 0 0 0 0 0 0 0 0 0 0 1 1 1 1 0 0 0 0 0 0 0 0 1 1 1 0 0 0
-0 -0 0 0 0 0 0 0 0 0 0 0 0 0 0 0 1 1 1 1 1 0 0 0 0 1 1 1 1 1 1 1 1 1 1 0 0 1 0 0 0 0 0 1 1 1 1 1 1
0 -0 0 0 0 0 0 0 0 0 0 0 0 0 0 0 0 0 0 0 0 0 0 1 1 1 1 1 1 1 1 1 1 1 1 1 1 1 0 0 0 0 1 0 1 1 1 1 1
-0 0 -0 -0 -0 0 0 0 0 0 0 0 0 0 0 0 0 0 0 0 0 0 0 1 1 1 1 1 2 2 1 1 1 1 1 1 1 1 1 1 1 1 1 1 1 1 1 1 1
0 0 -0 -0 -0 -0 0 0 0 0 0 0 0 0 0 0 0 0 0 0 0 0 0 1 1 1 1 2 2 2 2 2 2 2 2 1 1 1 1 1 1 2 1 1 1 1 1 1 1
0 0 -0 0 0 -0 -0 0 0 0 0 0 0 0 0 0 0 0 0 0 0 0 0 0 1 1 1 2 2 2 2 2 2 2 1 1 1 1 1 1 1 2 1 1 1 1 1 1 1
0 0 0 -0 0 0 -0 -0 -0 -0 0 0 0 0 0 0 0 0 0 0 0 0 0 0 0 1 2 2 2 1 1 2 2 2 2 1 1 1 1 1 1 1 1 1 1 1 1 2 2
0 0 0 0 0 0 0 0 0 0 0 0 0 0 0 0 0 0 0 0 0 0 0 0 0 1 2 1 1 1 1 1 2 2 2 2 1 2 1 1 1 1 1 1 1 1 2 1 2
0 0 0 0 0 0 0 0 0 0 0 0 0 0 0 0 0 0 0 0 0 0 0 0 0 1 2 1 2 2 2 2 2 3 2 1 1 1 0 0 0 0 0 0 0 1 1 1 1
0 0 0 0 0 0 0 0 0 0 0 0 0 0 0 0 0 0 0 0 0 0 0 0 0 1 2 2 2 2 2 2 1 1 1 0 0 0 0 0 0 0 0 0 0 0 1 1 1
0 0 0 0 0 0 0 0 0 0 0 0 0 0 0 0 0 0 0 0 0 0 0 0 1 1 2 3 2 2 3 2 1 1 0 0 0 0 0 0 0 0 0 0 0 0 0 0 0
0 0 0 0 0 0 0 0 0 0 0 0 0 0 0 0 0 0 0 0 0 0 0 0 1 2 2 2 2 2 2 2 1 1 0 0 0 0 0 0 0 0 0 0 0 0 0 0 0
0 0 0 0 0 0 0 0 0 0 0 0 0 0 0 0 0 0 0 0 0 0 0 0 1 2 2 2 3 2 2 1 0 0 0 0 0 0 0 0 0 0 0 0 0 0 0 0 0
0 0 0 0 0 0 0 0 0 0 0 0 0 0 0 0 0 0 0 0 0 0 0 0 0 1 1 1 1 1 1 0 0 0 0 0 0 0 0 0 0 0 0 0 0 0 0 0 0
0 0 0 0 0 0 0 0 0 0 0 0 0 0 0 0 0 0 0 0 0 0 0 0 0 0 0 0 0 0 0 0 0 0 0 0 0 0 0 0 0 0 0 0 0 0 0 0 0
0 0 0 0 0 0 0 0 0 0 0 0 0 0 0 0 0 0 0 0 0 0 0 0 0 0 0 0 0 0 0 0 0 0 0 0 0 0 0 0 0 0 0 0 0 0 0 0 0
0 0 0 0 0 0 0 0 0 0 0 0 0 0 0 0 0 0 0 0 0 0 0 0 0 0 0 0 0 0 0 0 0 0 0 0 0 0 0 0 0 0 0 0 1 0 0 0 0
0 0 0 0 0 0 0 0 0 0 0 0 0 0 0 0 0 0 0 0 0 0 0 0 0 0 0 0 0 0 0 0 0 0 0 0 0 0 0 0 0 0 0 1 1 0 0 0 0
Wind_Speed_500mb
9 13 10 11 14 14 26 11 3 8 5 9 17 13 10 14 19 9 20 26 39 41 43 44 45 44 40 40 42 43 43 38 33 29 25 20 19 25 30 29 28 24 20 17 15 13 14 14 15
11 9 9 19 17 23 24 12 24 6 11 14 4 9 9 10 10 14 30 33 42 40 44 44 42 42 41 40 41 40 36 33 29 25 22 20 24 28 30 27 25 20 16 14 15 15 13 13 13
11 11 19 12 25 29 23 23 10 4 9 6 5 5 4 9 10 28 23 38 43 40 43 42 39 38 39 35 35 35 32 29 27 25 23 24 27 30 28 25 21 17 13 13 14 14 12 12 13
13 16 15 21 31 34 23 14 8 10 4 1 8 8 9 11 20 14 33 43 41 38 39 40 38 37 35 35 32 32 30 27 25 23 24 26 29 31 26 22 17 14 11 11 13 12 11 11 13
15 15 22 31 41 22 22 12 10 14 6 6 16 14 13 13 18 28 33 42 41 38 37 42 40 37 34 32 30 29 27 25 24 24 25 27 30 29 24 20 16 12 10 11 12 11 9 9 9
17 14 21 34 40 26 19 21 20 21 11 4 16 10 19 17 20 29 31 39 38 38 38 42 40 37 33 31 28 24 23 24 24 25 26 28 28 25 22 18 14 12 12 12 13 13 12 11 11
22 14 33 34 39 26 25 19 22 21 15 9 4 18 14 24 22 30 32 37 39 37 37 41 41 39 35 32 28 23 22 22 23 24 26 27 27 25 21 18 15 13 13 14 16 16 16 15 15
25 14 36 23 24 28 16 13 9 19 14 5 12 15 24 28 28 32 30 35 36 36 36 38 43 41 39 36 31 26 24 23 23 24 25 26 26 25 22 19 18 16 16 16 17 17 17 16 17
17 21 28 34 26 15 14 18 12 8 10 6 11 3 13 29 33 32 33 35 38 37 37 36 38 38 38 35 36 32 28 26 26 27 28 28 27 26 25 24 21 19 18 17 17 18 18 20 21
33 32 42 16 7 12 5 10 5 16 13 15 12 11 16 31 38 36 37 40 41 39 38 37 38 39 38 34 36 39 36 34 32 32 31 29 24 23 21 24 22 21 21 20 21 20 22 22 20
39 40 34 23 17 32 31 23 16 22 19 3 5 12 20 32 39 36 33 34 39 37 38 39 41 41 40 36 34 36 34 33 36 36 34 32 26 26 26 20 24 25 24 22 23 23 26 22 22
36 45 40 20 36 34 24 23 22 21 26 11 6 2 22 35 41 38 34 33 35 36 37 39 40 45 45 36 36 34 35 35 33 36 40 36 34 31 27 23 22 24 22 22 25 22 26 28 31
49 40 17 27 37 44 50 43 40 43 30 26 14 14 21 33 36 34 32 31 32 36 38 40 41 45 47 52 37 38 37 36 32 32 38 38 32 30 27 26 25 25 24 25 25 25 26 28 31
53 50 36 13 40 43 54 51 43 47 35 39 29 21 24 29 34 35 36 35 35 34 37 38 40 40 46 50 50 39 38 36 34 32 33 37 34 31 28 29 28 27 27 28 28 29 30 31 31
50 41 26 29 31 36 44 57 45 52 42 33 40 29 25 26 28 33 33 33 32 34 34 39 41 44 47 48 51 47 37 36 34 34 35 35 33 36 30 28 27 25 25 29 30 33 34 36 35
51 35 39 38 41 32 11 52 43 47 40 47 44 40 31 32 31 31 30 30 30 30 32 33 36 42 50 56 54 44 39 37 34 32 31 34 30 29 27 27 26 24 24 26 26 28 29 31 31
37 40 48 31 63 36 29 38 54 61 36 43 44 43 38 36 35 35 35 34 39 41 36 35 38 42 49 53 48 43 41 39 34 34 33 34 32 30 31 27 26 29 23 26 27 30 29 31 33
43 51 38 37 29 55 53 51 32 49 45 45 41 48 45 41 40 39 41 39 38 45 43 44 40 40 46 44 46 39 39 37 36 35 32 34 33 31 32 31 32 35 23 24 27 32 31 33 36
33 31 28 34 26 41 49 39 38 48 34 35 36 37 35 40 44 45 41 38 46 48 50 48 43 41 43 39 38 39 42 39 38 36 35 36 35 31 33 28 25 27 26 28 30 31 34 37 37
24 34 39 19 29 34 36 39 39 34 36 42 37 32 28 26 30 33 31 35 43 47 49 53 53 50 51 40 32 29 30 32 33 31 34 35 35 34 28 24 22 23 20 30 32 35 39 39 40
36 33 29 25 27 23 16 29 31 33 32 23 24 20 18 17 20 23 19 27 35 46 52 57 60 58 55 42 38 38 29 31 34 34 35 42 34 28 22 19 18 27 29 22 29 28 32 36 37
40 31 25 24 21 23 34 26 44 40 31 28 30 18 14 7 7 10 13 16 21 22 29 47 57 55 55 54 46 44 40 38 34 34 29 33 28 22 19 18 22 24 19 26 26 27 33 33 37
28 28 33 30 27 26 23 17 13 19 26 31 23 20 14 6 2 1 2 7 12 16 21 31 44 52 49 58 48 48 40 36 39 32 35 29 26 20 17 18 20 22 19 22 25 26 24 27 33
18 22 21 20 22 25 34 24 26 22 27 25 20 13 5 1 4 7 10 12 11 13 22 29 39 48 52 57 56 50 42 40 36 35 34 27 22 21 17 18 20 19 16 16 16 21 24 27 30
35 30 17 19 20 23 11 23 32 18 10 6 8 6 6 9 10 12 13 12 15 16 22 23 32 38 43 44 46 46 47 38 35 33 28 26 23 22 21 20 22 20 19 17 15 16 20 23 25
40 37 18 21 21 20 23 16 13 13 11 9 10 12 13 14 14 14 16 15 11 7 4 10 17 22 26 31 30 34 35 32 28 25 22 22 23 24 26 25 27 26 27 25 25 23 22 22 24
46 37 36 13 4 9 18 12 14 19 20 16 18 21 20 18 16 17 19 22 22 20 16 12 13 19 22 23 26 30 36 30 25 24 28 23 26 26 30 34 36 38 37 37 37 35 35 31 32
24 35 22 17 21 22 18 12 5 29 24 22 19 18 18 17 17 16 18 19 18 16 15 16 16 16 16 15 16 16 27 32 33 33 35 38 37 36 37 39 44 48 49 50 50 45 44 48 45
25 24 22 15 21 16 17 9 9 21 19 22 19 16 12 12 13 14 14 16 14 12 9 9 6 4 1 8 16 25 31 37 41 45 48 51 54 56 52 47 48 50 52 52 57 62 59 54 56
24 37 31 18 18 14 13 7 13 22 21 20 18 12 11 11 12 12 12 11 12 13 11 6 3 2 9 16 26 34 37 39 45 47 48 49 53 56 55 54 55 57 58 58 59 60 62 64 67
Wind_Direction_500mb
293 294 288 260 242 233 240 206 307 154 125 350 307 264 314 354 348 37 144 144 157 160 171 173 171 170 168 166 168 168 169 170 170 168 167 166 168 161 157 152 152 152 153 156 157 149 136 123 119
269 273 248 257 248 215 216 190 209 109 2 331 271 220 211 79 48 113 142 155 155 163 169 175 173 171 168 168 167 169 171 173 175 175 180 184 174 166 160 156 156 156 155 155 152 147 139 129 125
259 234 246 230 233 242 223 174 160 268 346 344 218 258 40 61 100 135 152 153 157 161 169 174 174 173 169 169 169 172 176 179 182 185 190 185 174 167 163 160 157 157 156 155 154 152 146 138 132
232 207 234 243 229 231 249 145 181 250 182 13 202 179 106 90 128 152 148 153 157 161 165 171 174 175 174 171 175 178 182 186 189 192 187 180 172 168 166 163 161 162 162 165 165 163 158 150 148
224 228 232 227 237 229 241 189 230 237 255 289 194 130 110 123 125 140 147 157 159 163 165 173 175 177 177 176 180 183 189 192 192 188 183 176 171 171 171 170 170 171 174 178 180 178 172 167 167
206 249 222 226 223 214 227 225 224 228 233 254 212 175 128 147 136 150 151 160 165 165 166 178 178 179 181 181 184 187 192 191 186 183 180 175 174 176 178 179 182 184 188 191 194 198 196 194 197
236 216 233 233 227 209 219 227 225 219 211 210 286 196 122 158 156 154 154 162 168 167 166 180 182 183 185 185 187 186 189 189 184 181 179 179 179 182 186 192 198 200 203 203 206 211 214 219 218
197 250 233 232 226 224 176 213 225 226 192 266 203 219 174 172 155 156 157 164 169 172 174 177 185 188 190 190 190 189 190 190 189 186 185 186 188 193 199 206 212 215 218 224 227 226 231 236 250
204 236 227 212 216 220 183 218 217 279 241 205 205 279 93 165 158 158 161 167 172 177 181 180 183 186 188 194 196 194 195 194 194 194 195 197 201 206 213 217 219 224 228 234 243 254 251 255 254
219 216 229 214 274 270 210 261 267 264 217 196 208 210 153 164 167 169 169 173 177 180 184 187 187 190 188 194 200 201 203 203 202 202 203 203 200 208 206 226 229 234 236 236 243 238 251 257 261
236 235 224 264 298 287 279 268 260 256 236 166 219 202 192 178 179 178 178 180 181 184 186 190 192 196 191 196 200 199 203 203 207 211 212 206 210 221 221 224 236 240 244 251 253 257 256 249 245
247 250 244 247 275 275 260 274 265 271 261 148 121 179 197 190 187 186 184 181 182 187 192 195 200 206 203 200 206 206 206 207 207 211 219 214 219 222 215 220 225 233 233 240 244 246 246 254 267
207 228 223 255 258 273 290 277 281 275 265 254 247 257 206 195 192 190 191 190 190 194 197 200 202 213 215 212 211 208 212 215 213 211 222 222 221 223 227 228 228 235 240 244 246 253 254 263 268
208 218 202 220 271 280 280 279 262 264 267 257 245 236 219 209 205 200 201 200 201 204 206 208 215 222 223 224 218 216 215 215 210 216 219 228 227 226 226 234 236 239 244 245 248 253 254 260 258
225 204 202 210 232 251 274 281 262 257 264 252 234 225 219 216 207 203 204 205 209 214 212 215 223 229 233 233 232 225 220 216 218 217 221 229 231 231 227 226 227 232 240 246 249 253 259 261 262
215 213 218 212 207 243 199 269 267 264 247 243 239 226 221 222 214 215 212 212 210 208 216 213 218 226 238 238 235 223 223 223 219 218 222 230 224 222 224 225 233 231 237 245 250 253 257 261 262
206 216 219 209 192 201 183 251 249 273 253 239 234 231 223 220 224 229 227 226 225 223 219 219 223 229 238 240 230 225 223 220 219 218 219 226 223 222 223 228 232 239 246 248 250 254 256 262 267
204 217 213 208 211 197 210 238 237 253 245 241 240 232 227 229 232 232 232 229 225 228 225 225 227 228 230 230 231 223 224 223 219 220 215 221 222 229 236 238 241 250 250 254 258 256 257 261 263
209 212 216 206 209 208 214 221 234 235 237 237 223 236 239 242 246 247 232 226 227 226 224 227 223 225 227 224 217 218 219 218 217 214 214 217 228 236 237 238 248 250 249 256 255 267 274 269 269
230 206 218 174 176 214 212 230 209 231 230 238 228 222 233 256 243 229 225 228 230 226 230 226 222 227 229 227 218 208 208 212 209 205 212 216 228 231 231 229 233 239 249 271 271 272 273 271 267
217 222 206 207 192 219 228 223 230 226 231 210 227 234 250 270 232 217 222 224 224 226 232 224 219 225 228 217 218 223 192 189 192 199 208 220 227 228 221 243 248 269 271 264 275 277 273 276 272
209 218 235 216 227 222 195 244 207 225 212 210 218 210 211 186 166 184 212 223 225 229 229 221 220 227 228 226 219 218 212 194 198 203 201 221 217 218 237 254 263 270 258 261 277 283 273 273 275
220 175 216 224 230 249 201 241 216 186 219 217 214 204 177 156 131 195 234 262 250 238 230 224 226 230 225 228 214 218 200 199 202 190 207 199 209 221 234 254 269 277 278 272 284 274 274 269 277
173 198 205 224 226 227 231 217 225 193 219 206 156 170 137 45 329 339 331 310 294 265 240 229 227 229 227 229 219 213 206 197 188 189 194 198 207 226 244 264 271 268 267 285 285 276 271 274 271
200 185 180 200 204 236 192 198 244 118 148 136 144 107 30 27 19 4 354 329 303 278 251 233 230 225 223 217 216 213 213 222 207 195 192 198 209 217 240 256 262 255 271 273 280 283 282 276 274
195 198 231 213 213 198 145 220 139 137 136 151 114 97 70 46 41 40 44 38 24 359 285 220 211 203 212 209 201 181 178 180 189 202 211 216 226 235 233 255 253 255 257 267 269 264 271 264 277
194 212 233 267 345 277 174 122 150 152 147 144 128 113 90 72 66 57 59 55 59 63 74 104 149 162 156 158 164 175 183 186 202 212 228 236 241 245 244 250 257 255 257 263 267 264 265 266 269
198 199 195 215 225 218 210 219 163 173 158 142 133 112 86 76 65 57 52 58 61 67 87 107 122 143 154 164 179 193 208 219 231 241 244 243 239 246 244 247 250 251 254 258 258 257 261 264 266
197 205 222 249 223 223 245 215 99 135 157 137 122 109 83 58 48 50 57 59 63 72 87 89 99 104 189 232 236 238 240 242 248 252 256 256 254 255 257 254 252 252 251 250 252 254 252 252 255
220 211 207 221 205 245 282 290 97 136 143 142 125 94 64 41 36 40 51 62 65 67 61 48 270 5 283 269 261 258 258 262 264 266 265 263 262 260 259 258 257 255 254 255 254 254 253 252 252
Wind_Speed_850mb
9 13 10 11 14 14 26 11 3 8 5 9 17 13 10 14 19 9 20 26 39 41 43 44 45 44 40 40 42 43 43 38 33 29 25 20 19 25 30 29 28 24 20 17 15 13 14 14 15
11 9 9 19 17 23 24 12 24 6 11 14 4 9 9 10 10 14 30 33 42 40 44 44 42 42 41 40 41 40 36 33 29 25 22 20 24 28 30 27 25 20 16 14 15 15 13 13 13
11 11 19 12 25 29 23 23 10 4 9 6 5 5 4 9 10 28 23 38 43 40 43 42 39 38 39 35 35 35 32 29 27 25 23 24 27 30 28 25 21 17 13 13 14 14 12 12 13
13 16 15 21 31 34 23 14 8 10 4 1 8 8 9 11 20 14 33 43 41 38 39 40 38 37 35 35 32 32 30 27 25 23 24 26 29 31 26 22 17 14 11 11 13 12 11 11 13
15 15 22 31 41 22 22 12 10 14 6 6 16 14 13 13 18 28 33 42 41 38 37 42 40 37 34 32 30 29 27 25 24 24 25 27 30 29 24 20 16 12 10 11 12 11 9 9 9
17 14 21 34 40 26 19 21 20 21 11 4 16 10 19 17 20 29 31 39 38 38 38 42 40 37 33 31 28 24 23 24 24 25 26 28 28 25 22 18 14 12 12 12 13 13 12 11 11
22 14 33 34 39 26 25 19 22 21 15 9 4 18 14 24 22 30 32 37 39 37 37 41 41 39 35 32 28 23 22 22 23 24 26 27 27 25 21 18 15 13 13 14 16 16 16 15 15
25 14 36 23 24 28 16 13 9 19 14 5 12 15 24 28 28 32 30 35 36 36 36 38 43 41 39 36 31 26 24 23 23 24 25 26 26 25 22 19 18 16 16 16 17 17 17 16 17
17 21 28 34 26 15 14 18 12 8 10 6 11 3 13 29 33 32 33 35 38 37 37 36 38 38 38 35 36 32 28 26 26 27 28 28 27 26 25 24 21 19 18 17 17 18 18 20 21
33 32 42 16 7 12 5 10 5 16 13 15 12 11 16 31 38 36 37 40 41 39 38 37 38 39 38 34 36 39 36 34 32 32 31 29 24 23 21 24 22 21 21 20 21 20 22 22 20
39 40 34 23 17 32 31 23 16 22 19 3 5 12 20 32 39 36 33 34 39 37 38 39 41 41 40 36 34 36 34 33 36 36 34 32 26 26 26 20 24 25 24 22 23 23 26 22 22
36 45 40 20 36 34 24 23 22 21 26 11 6 2 22 35 41 38 34 33 35 36 37 39 40 45 45 36 36 34 35 35 33 36 40 36 34 31 27 23 22 24 22 22 25 22 26 28 31
49 40 17 27 37 44 50 43 40 43 30 26 14 14 21 33 36 34 32 31 32 36 38 40 41 45 47 52 37 38 37 36 32 32 38 38 32 30 27 26 25 25 24 25 25 25 26 28 31
53 50 36 13 40 43 54 51 43 47 35 39 29 21 24 29 34 35 36 35 35 34 37 38 40 40 46 50 50 39 38 36 34 32 33 37 34 31 28 29 28 27 27 28 28 29 30 31 31
50 41 26 29 31 36 44 57 45 52 42 33 40 29 25 26 28 33 33 33 32 34 34 39 41 44 47 48 51 47 37 36 34 34 35 35 33 36 30 28 27 25 25 29 30 33 34 36 35
51 35 39 38 41 32 11 52 43 47 40 47 44 40 31 32 31 31 30 30 30 30 32 33 36 42 50 56 54 44 39 37 34 32 31 34 30 29 27 27 26 24 24 26 26 28 29 31 31
37 40 48 31 63 36 29 38 54 61 36 43 44 43 38 36 35 35 35 34 39 41 36 35 38 42 49 53 48 43 41 39 34 34 33 34 32 30 31 27 26 29 23 26 27 30 29 31 33
43 51 38 37 29 55 53 51 32 49 45 45 41 48 45 41 40 39 41 39 38 45 43 44 40 40 46 44 46 39 39 37 36 35 32 34 33 31 32 31 32 35 23 24 27 32 31 33 36
33 31 28 34 26 41 49 39 38 48 34 35 36 37 35 40 44 45 41 38 46 48 50 48 43 41 43 39 38 39 42 39 38 36 35 36 35 31 33 28 25 27 26 28 30 31 34 37 37
24 34 39 19 29 34 36 39 39 34 36 42 37 32 28 26 30 33 31 35 43 47 49 53 53 50 51 40 32 29 30 32 33 31 34 35 35 34 28 24 22 23 20 30 32 35 39 39 40
36 33 29 25 27 23 16 29 31 33 32 23 24 20 18 17 20 23 19 27 35 46 52 57 60 58 55 42 38 38 29 31 34 34 35 42 34 28 22 19 18 27 29 22 29 28 32 36 37
40 31 25 24 21 23 34 26 44 40 31 28 30 18 14 7 7 10 13 16 21 22 29 47 57 55 55 54 46 44 40 38 34 34 29 33 28 22 19 18 22 24 19 26 26 27 33 33 37
28 28 33 30 27 26 23 17 13 19 26 31 23 20 14 6 2 1 2 7 12 16 21 31 44 52 49 58 48 48 40 36 39 32 35 29 26 20 17 18 20 22 19 22 25 26 24 27 33
18 22 21 20 22 25 34 24 26 22 27 25 20 13 5 1 4 7 10 12 11 13 22 29 39 48 52 57 56 50 42 40 36 35 34 27 22 21 17 18 20 19 16 16 16 21 24 27 30
35 30 17 19 20 23 11 23 32 18 10 6 8 6 6 9 10 12 13 12 15 16 22 23 32 38 43 44 46 46 47 38 35 33 28 26 23 22 21 20 22 20 19 17 15 16 20 23 25
40 37 18 21 21 20 23 16 13 13 11 9 10 12 13 14 14 14 16 15 11 7 4 10 17 22 26 31 30 34 35 32 28 25 22 22 23 24 26 25 27 26 27 25 25 23 22 22 24
46 37 36 13 4 9 18 12 14 19 20 16 18 21 20 18 16 17 19 22 22 20 16 12 13 19 22 23 26 30 36 30 25 24 28 23 26 26 30 34 36 38 37 37 37 35 35 31 32
24 35 22 17 21 22 18 12 5 29 24 22 19 18 18 17 17 16 18 19 18 16 15 16 16 16 16 15 16 16 27 32 33 33 35 38 37 36 37 39 44 48 49 50 50 45 44 48 45
25 24 22 15 21 16 17 9 9 21 19 22 19 16 12 12 13 14 14 16 14 12 9 9 6 4 1 8 16 25 31 37 41 45 48 51 54 56 52 47 48 50 52 52 57 62 59 54 56
24 37 31 18 18 14 13 7 13 22 21 20 18 12 11 11 12 12 12 11 12 13 11 6 3 2 9 16 26 34 37 39 45 47 48 49 53 56 55 54 55 57 58 58 59 60 62 64 67
Wind_Direction_850mb
293 294 288 260 242 233 240 206 307 154 125 350 307 264 314 354 348 37 144 144 157 160 171 173 171 170 168 166 168 168 169 170 170 168 167 166 168 161 157 152 152 152 153 156 157 149 136 123 119
269 273 248 257 248 215 216 190 209 109 2 331 271 220 211 79 48 113 142 155 155 163 169 175 173 171 168 168 167 169 171 173 175 175 180 184 174 166 160 156 156 156 155 155 152 147 139 129 125
259 234 246 230 233 242 223 174 160 268 346 344 218 258 40 61 100 135 152 153 157 161 169 174 174 173 169 169 169 172 176 179 182 185 190 185 174 167 163 160 157 157 156 155 154 152 146 138 132
232 207 234 243 229 231 249 145 181 250 182 13 202 179 106 90 128 152 148 153 157 161 165 171 174 175 174 171 175 178 182 186 189 192 187 180 172 168 166 163 161 162 162 165 165 163 158 150 148
224 228 232 227 237 229 241 189 230 237 255 289 194 130 110 123 125 140 147 157 159 163 165 173 175 177 177 176 180 183 189 192 192 188 183 176 171 171 171 170 170 171 174 178 180 178 172 167 167
206 249 222 226 223 214 227 225 224 228 233 254 212 175 128 147 136 150 151 160 165 165 166 178 178 179 181 181 184 187 192 191 186 183 180 175 174 176 178 179 182 184 188 191 194 198 196 194 197
236 216 233 233 227 209 219 227 225 219 211 210 286 196 122 158 156 154 154 162 168 167 166 180 182 183 185 185 187 186 189 189 184 181 179 179 179 182 186 192 198 200 203 203 206 211 214 219 218
197 250 233 232 226 224 176 213 225 226 192 266 203 219 174 172 155 156 157 164 169 172 174 177 185 188 190 190 190 189 190 190 189 186 185 186 188 193 199 206 212 215 218 224 227 226 231 236 250
204 236 227 212 216 220 183 218 217 279 241 205 205 279 93 165 158 158 161 167 172 177 181 180 183 186 188 194 196 194 195 194 194 194 195 197 201 206 213 217 219 224 228 234 243 254 251 255 254
219 216 229 214 274 270 210 261 267 264 217 196 208 210 153 164 167 169 169 173 177 180 184 187 187 190 188 194 200 201 203 203 202 202 203 203 200 208 206 226 229 234 236 236 243 238 251 257 261
236 235 224 264 298 287 279 268 260 256 236 166 219 202 192 178 179 178 178 180 181 184 186 190 192 196 191 196 200 199 203 203 207 211 212 206 210 221 221 224 236 240 244 251 253 257 256 249 245
247 250 244 247 275 275 260 274 265 271 261 148 121 179 197 190 187 186 184 181 182 187 192 195 200 206 203 200 206 206 206 207 207 211 219 214 219 222 215 220 225 233 233 240 244 246 246 254 267
207 228 223 255 258 273 290 277 281 275 265 254 247 257 206 195 192 190 191 190 190 194 197 200 202 213 215 212 211 208 212 215 213 211 222 222 221 223 227 228 228 235 240 244 246 253 254 263 268
208 218 202 220 271 280 280 279 262 264 267 257 245 236 219 209 205 200 201 200 201 204 206 208 215 222 223 224 218 216 215 215 210 216 219 228 227 226 226 234 236 239 244 245 248 253 254 260 258
225 204 202 210 232 251 274 281 262 257 264 252 234 225 219 216 207 203 204 205 209 214 212 215 223 229 233 233 232 225 220 216 218 217 221 229 231 231 227 226 227 232 240 246 249 253 259 261 262
215 213 218 212 207 243 199 269 267 264 247 243 239 226 221 222 214 215 212 212 210 208 216 213 218 226 238 238 235 223 223 223 219 218 222 230 224 222 224 225 233 231 237 245 250 253 257 261 262
206 216 219 209 192 201 183 251 249 273 253 239 234 231 223 220 224 229 227 226 225 223 219 219 223 229 238 240 230 225 223 220 219 218 219 226 223 222 223 228 232 239 246 248 250 254 256 262 267
204 217 213 208 211 197 210 238 237 253 245 241 240 232 227 229 232 232 232 229 225 228 225 225 227 228 230 230 231 223 224 223 219 220 215 221 222 229 236 238 241 250 250 254 258 256 257 261 263
209 212 216 206 209 208 214 221 234 235 237 237 223 236 239 242 246 247 232 226 227 226 224 227 223 225 227 224 217 218 219 218 217 214 214 217 228 236 237 238 248 250 249 256 255 267 274 269 269
230 206 218 174 176 214 212 230 209 231 230 238 228 222 233 256 243 229 225 228 230 226 230 226 222 227 229 227 218 208 208 212 209 205 212 216 228 231 231 229 233 239 249 271 271 272 273 271 267
217 222 206 207 192 219 228 223 230 226 231 210 227 234 250 270 232 217 222 224 224 226 232 224 219 225 228 217 218 223 192 189 192 199 208 220 227 228 221 243 248 269 271 264 275 277 273 276 272
209 218 235 216 227 222 195 244 207 225 212 210 218 210 211 186 166 184 212 223 225 229 229 221 220 227 228 226 219 218 212 194 198 203 201 221 217 218 237 254 263 270 258 261 277 283 273 273 275
220 175 216 224 230 249 201 241 216 186 219 217 214 204 177 156 131 195 234 262 250 238 230 224 226 230 225 228 214 218 200 199 202 190 207 199 209 221 234 254 269 277 278 272 284 274 274 269 277
173 198 205 224 226 227 231 217 225 193 219 206 156 170 137 45 329 339 331 310 294 265 240 229 227 229 227 229 219 213 206 197 188 189 194 198 207 226 244 264 271 268 267 285 285 276 271 274 271
200 185 180 200 204 236 192 198 244 118 148 136 144 107 30 27 19 4 354 329 303 278 251 233 230 225 223 217 216 213 213 222 207 195 192 198 209 217 240 256 262 255 271 273 280 283 282 276 274
195 198 231 213 213 198 145 220 139 137 136 151 114 97 70 46 41 40 44 38 24 359 285 220 211 203 212 209 201 181 178 180 189 202 211 216 226 235 233 255 253 255 257 267 269 264 271 264 277
194 212 233 267 345 277 174 122 150 152 147 144 128 113 90 72 66 57 59 55 59 63 74 104 149 162 156 158 164 175 183 186 202 212 228 236 241 245 244 250 257 255 257 263 267 264 265 266 269
198 199 195 215 225 218 210 219 163 173 158 142 133 112 86 76 65 57 52 58 61 67 87 107 122 143 154 164 179 193 208 219 231 241 244 243 239 246 244 247 250 251 254 258 258 257 261 264 266
197 205 222 249 223 223 245 215 99 135 157 137 122 109 83 58 48 50 57 59 63 72 87 89 99 104 189 232 236 238 240 242 248 252 256 256 254 255 257 254 252 252 251 250 252 254 252 252 255
220 211 207 221 205 245 282 290 97 136 143 142 125 94 64 41 36 40 51 62 65 67 61 48 270 5 283 269 261 258 258 262 264 266 265 263 262 260 259 258 257 255 254 255 254 254 253 252 252